• Join FlightAware (Why Join?)
  • Login
  • US Flag 
08:33AM EST


 

Airport Tracker/Info


-or-


 

Live Flight TrackerFlight Track Log ✈ UPS1303 ✈ 18-Jul-2013 ✈ KATL - KSDF

Flight Track Log - Related Links

Times and Time Zones

All times are in EDT time to prevent confusion due to time zone crossing. See the UPS1303 flight status page for this flight to view local times or setup timezone preferences in your user account.

Time Position Orientation Groundspeed Altitude Reporting Facility
EDT Latitude Longitude Course Direction KTS MPH feet Rate Location/Type
11:16PM 33.6510 -84.4190 219° Southwest 25 29  Level FlightAware
11:17PM 33.6510 -84.4200 270° West 27 31 329 Level FlightAware
11:17PM 33.6510 -84.4220 270° West 17 20 346 Level FlightAware
11:17PM 33.6510 -84.4240 270° West 18 21 381 Level FlightAware
11:18PM 33.6510 -84.4280 270° West 21 24 418 Level FlightAware
11:18PM 33.6510 -84.4310 270° West 21 24 481 Level FlightAware
11:20PM 33.6480 -84.4390 246° West 17 20 554 Level FlightAware
11:20PM 33.6470 -84.4380 140° Southeast 30 35 1,186 Level FlightAware
11:21PM 33.6470 -84.4310 90° East 105 121 1,437 Level FlightAware
11:22PM 33.6460 -84.4020 92° East 161 185 1,700 2,344 Climbing FlightAware
11:22PM 33.6470 -84.3700 88° East 215 247 2,500 1,714 Climbing FlightAware
11:22PM 33.6500 -84.3560 76° East 237 273 2,900 2,850 Climbing FlightAware
11:23PM 33.6580 -84.3170 76° East 264 304 4,400 3,450 Climbing FlightAware
11:23PM 33.6640 -84.3010 66° East 271 312 5,200 3,857 Climbing FlightAware
11:23PM 33.6800 -84.2850 40° Northeast 279 321 6,200 3,682 Climbing FlightAware
11:24PM 33.7140 -84.2710 19° North 288 331 7,900 3,536 Climbing FlightAware
11:24PM 33.7500 -84.2570 18° North 294 338 9,500 2,036 Climbing FlightAware
11:25PM 33.7870 -84.2470 13° North 312 359 9,800 321 Climbing FlightAware
11:25PM 33.8300 -84.2620 344° North 360 414 9,800 107 Level FlightAware
11:25PM 33.8720 -84.2920 329° Northwest 404 465 9,900 1,583 Climbing FlightAware
11:26PM 33.9450 -84.3450 329° Northwest 428 493 11,700 2,615 Climbing FlightAware
11:27PM 34.0050 -84.3890 329° Northwest 446 513 13,300 3,000 Climbing FlightAware
11:27PM 34.0830 -84.4400 332° Northwest 458 527 15,500 3,000 Climbing FlightAware
11:28PM 34.1434 -84.4628 343° North 16,900 2,850 Climbing FlightAware ADS-B
11:28PM 34.1656 -84.4695 346° North 468 539 17,400 2,488 Climbing FlightAware ADS-B
11:29PM 34.2314 -84.4902 345° North 481 554 18,600 2,516 Climbing FlightAware ADS-B
11:29PM 34.2990 -84.5110 346° North 487 560 20,000 2,400 Climbing FlightAware ADS-B
11:30PM 34.3623 -84.5302 346° North 497 572 21,000 2,040 Climbing FlightAware ADS-B
11:30PM 34.4101 -84.5390 351° North 502 578 21,700 2,077 Climbing FlightAware ADS-B
11:31PM 34.4822 -84.5471 355° North 511 588 22,800 1,969 Climbing FlightAware ADS-B
11:31PM 34.5608 -84.5569 354° North 522 601 23,800 1,846 Climbing FlightAware ADS-B
11:32PM 34.6382 -84.5664 354° North 530 610 24,800 2,438 Climbing FlightAware ADS-B
11:32PM 34.7174 -84.5761 354° North 524 603 26,400 2,857 Climbing FlightAware ADS-B
11:33PM 34.7912 -84.5852 354° North 520 598 27,800 1,548 Climbing FlightAware ADS-B
11:33PM 34.8649 -84.5943 354° North 508 585 28,000 182 Climbing FlightAware ADS-B
11:34PM 34.9461 -84.6044 354° North 508 585 28,000  Level FlightAware ADS-B
11:35PM 35.0717 -84.6202 354° North 508 585 28,000  Level FlightAware ADS-B
11:35PM 35.1424 -84.6291 354° North 508 585 28,000  Level FlightAware ADS-B
11:36PM 35.2177 -84.6384 354° North 508 585 28,000  Level FlightAware ADS-B
11:36PM 35.2883 -84.6474 354° North 509 586 28,000  Level FlightAware ADS-B
11:37PM 35.3602 -84.6564 354° North 509 586 28,000  Level FlightAware ADS-B
11:37PM 35.4314 -84.6653 354° North 508 585 28,000  Level FlightAware ADS-B
11:38PM 35.5015 -84.6741 354° North 507 583 28,000  Level FlightAware ADS-B
11:38PM 35.5718 -84.6829 354° North 506 582 28,000  Level FlightAware ADS-B
11:39PM 35.6427 -84.6917 354° North 506 582 28,000  Level FlightAware ADS-B
11:39PM 35.7142 -84.7009 354° North 506 582 28,000  Level FlightAware ADS-B
11:40PM 35.7845 -84.7097 354° North 505 581 28,000  Level FlightAware ADS-B
11:40PM 35.8544 -84.7186 354° North 505 581 28,000  Level FlightAware ADS-B
11:41PM 35.9244 -84.7276 354° North 504 580 28,000  Level FlightAware ADS-B
11:41PM 35.9949 -84.7365 354° North 504 580 28,000  Level FlightAware ADS-B
11:42PM 36.0649 -84.7454 354° North 503 579 28,000  Level FlightAware ADS-B
11:42PM 36.1372 -84.7547 354° North 504 580 28,000  Level FlightAware ADS-B
11:43PM 36.2088 -84.7639 354° North 505 581 28,000  Level FlightAware ADS-B
11:43PM 36.2807 -84.7731 354° North 507 583 28,000  Level FlightAware ADS-B
11:44PM 36.3613 -84.7834 354° North 509 586 28,000 -79 Level FlightAware ADS-B
11:45PM 36.4601 -84.7962 354° North 511 588 27,900 -450 Descending FlightAware ADS-B
11:45PM 36.5456 -84.8070 354° North 494 568 27,400 -943 Descending FlightAware ADS-B
11:46PM 36.6188 -84.8167 354° North 490 564 26,800 -1,048 Descending FlightAware ADS-B
11:46PM 36.6874 -84.8258 354° North 486 559 26,300 -984 Descending FlightAware ADS-B
11:47PM 36.7551 -84.8347 354° North 497 572 25,800 -1,000 Descending FlightAware ADS-B
11:47PM 36.8249 -84.8438 354° North 508 585 25,300 -885 Descending FlightAware ADS-B
11:48PM 36.8966 -84.8528 354° North 501 577 24,900 -1,279 Descending FlightAware ADS-B
11:48PM 36.9660 -84.8618 354° North 496 571 24,000 -2,300 Descending FlightAware ADS-B
11:49PM 37.0340 -84.8706 354° North 491 565 22,600 -2,754 Descending FlightAware ADS-B
11:49PM 37.1034 -84.8798 354° North 481 554 21,200 -2,769 Descending FlightAware ADS-B
11:50PM 37.1774 -84.8894 354° North 473 544 19,600 -2,854 Descending FlightAware ADS-B
11:51PM 37.2802 -84.9032 354° North 462 532 17,300 -2,810 Descending FlightAware ADS-B
11:51PM 37.3459 -84.9118 354° North 447 514 15,900 -2,769 Descending FlightAware ADS-B
11:52PM 37.4140 -84.9210 354° North 435 501 14,300 -1,807 Descending FlightAware
11:53PM 37.5030 -84.9340 353° North 429 494 13,400 -635 Descending FlightAware
11:53PM 37.5630 -84.9430 353° North 429 494 13,400  Level FlightAware
11:54PM 37.6430 -84.9560 353° North 429 494 13,400 -1,692 Level FlightAware
11:54PM 37.6740 -84.9860 323° Northwest 10,100 -2,245 Descending FlightAware
11:56PM 37.7970 -85.1470 314° West 299 344 7,900 -841 Descending FlightAware
11:57PM 37.8170 -85.1740 313° West 299 344 7,900  Level FlightAware
11:57PM 37.8340 -85.2090 302° West 299 344 7,900  Level FlightAware
11:58PM 37.8570 -85.2670 297° West 299 344 7,900 -197 Level FlightAware
11:58PM 37.8360 -85.3150 241° Southwest 287 330 7,700 -875 Descending FlightAware
11:59PM 37.8420 -85.3640 279° West 282 325 7,200 -1,071 Descending FlightAware
11:59PM 37.8470 -85.4080 278° West 280 322 6,700 -982 Descending FlightAware
12:00AM 37.8520 -85.4540 278° West 280 322 6,300 -955 Descending FlightAware
12:00AM 37.8570 -85.4780 285° West 281 323 6,000 -571 Descending FlightAware
12:00AM 37.8680 -85.5200 288° West 277 319 5,900 -327 Descending FlightAware
12:01AM 37.8780 -85.5560 289° West 282 325 5,700 -778 Descending FlightAware
12:01AM 37.8980 -85.5980 301° West 280 322 5,200 -889 Descending FlightAware
12:02AM 37.9200 -85.6320 309° West 256 295 4,900 -360 Descending FlightAware
12:02AM 37.9340 -85.6550 308° West 233 268 4,900  Level FlightAware
12:02AM 37.9500 -85.6710 322° Northwest 197 227 4,900 -436 Level FlightAware
12:03AM 37.9780 -85.6800 346° North 186 214 4,500 -1,100 Descending FlightAware
12:03AM 38.0040 -85.6890 345° North 181 208 3,800 -1,467 Descending FlightAware
12:04AM 38.0170 -85.6930 346° North 177 204 3,400 -1,435 Descending FlightAware
12:04AM 38.0410 -85.7010 345° North 169 194 2,700 -857 Descending FlightAware
12:05AM 38.0690 -85.7140 340° North 162 186 2,400 -360 Descending FlightAware
12:05AM 38.0710 -85.7230 286° West 168 193 2,400 136 Level FlightAware
12:06AM 38.0660 -85.7610 261° West 188 216 2,500 261 Climbing FlightAware
12:06AM 38.0650 -85.7730 264° West 189 217 2,600 429 Climbing FlightAware
12:06AM 38.0610 -85.7900 253° West 188 216 2,700 643 Climbing FlightAware
12:06AM 38.0540 -85.7990 225° Southwest 186 214 2,900 500 Climbing FlightAware
12:06AM 38.0430 -85.8020 192° South 190 219 2,900  Level FlightAware
12:07AM 38.0210 -85.7960 168° South 192 221 2,900  Level FlightAware
12:07AM 37.9980 -85.7900 168° South 193 222 2,900  Level FlightAware
12:08AM 37.9770 -85.7830 165° South 193 222 2,900  Level FlightAware
12:08AM 37.9510 -85.7750 166° South 192 221 2,900  Level FlightAware
12:09AM 37.9280 -85.7690 168° South 193 222 2,900  Level FlightAware
12:09AM 37.9080 -85.7630 167° South 194 223 2,900  Level FlightAware
12:09AM 37.8950 -85.7560 157° South 195 224 2,900  Level FlightAware
12:09AM 37.8920 -85.7510 127° Southeast 195 224 2,900  Level FlightAware
12:10AM 37.8840 -85.7260 112° Southeast 197 227 2,900  Level FlightAware
12:10AM 37.8820 -85.7160 104° East 196 226 2,900  Level FlightAware
12:10AM 37.8760 -85.6890 106° East 197 227 2,900  Level FlightAware
12:13AM 38.0070 -85.6890 360° North 186 214 2,900  Level FlightAware
12:13AM 38.0190 -85.6940 342° North 186 214 2,900 -536 Level FlightAware
12:14AM 38.0530 -85.7040 347° North 186 214 2,400 -885 Descending FlightAware
12:14AM 38.0740 -85.7110 345° North 183 211 2,000 -831 Descending FlightAware
12:15AM 38.1020 -85.7210 344° North 165 190 1,500 -794 Descending FlightAware
12:16AM 38.1250 -85.7280 347° North 163 188 1,100 -923 Descending FlightAware
12:16AM 38.1430 -85.7340 345° North 162 186 700 -583 Descending FlightAware
12:17AM 38.1740 -85.7450 344° North 159 183 400 -375 Descending FlightAware
12:17AM 38.1760 -85.7440 21° North 33 38 -923 Descending FlightAware
12:18AM 38.1770 -85.7390 76° East 32 37  Level FlightAware
12:18AM 38.1750 -85.7420 230° Southwest 34 39  Level FlightAware
12:18AM 38.1740 -85.7410 142° Southeast 27 31  Level FlightAware